Back to catalog

ONEWEB-0350

AliveCommunicationsPO
NORAD 49214·PAYLOAD·🇬🇧 United Kingdom

Launched Sep 14, 2021 from Baikonur Cosmodrome

Loading…

Next Passes (next 24 hours)

TLE

FreshSource: CelesTrak SupGP

Epoch: Sep 14, 2026, 06:45 UTC

1 49214C 21083AE  26257.28143935 -.00003404  00000+0 -93320-2 0  2579
2 49214  87.8925 302.5040 0002849  83.5939  27.5823 13.13476189    16

Track ONEWEB-0350 in real time with AllMySat

Download on the App Store